Weather History for Marianna, FL

Change the Weather History Date:

Thursday, January 31, 2013

  Actual Average Record
Temperature  
Mean Temperature 48 °F 52 °F  
Max Temperature 58 °F 63 °F 80 °F (2002)
Min Temperature 37 °F 41 °F 26 °F (2014)
Degree Days  
Heating Degree Days 17    
Month to date heating degree days 235  
Since 1 July heating degree days 726  
Cooling Degree Days 0    
Month to date cooling degree days 53  
Year to date cooling degree days 53  
Moisture  
Dew Point 28 °F    
Average Humidity 55    
Maximum Humidity 85    
Minimum Humidity 24    
Precipitation  
Precipitation 0.00 in 0.21 in 0.98 in (1999)
Month to date precipitation 0.96 5.04  
Year to date precipitation 0.96 5.04  
Sea Level Pressure  
Sea Level Pressure 30.19 in    
Wind  
Wind Speed 7 mph (NW)    
Max Wind Speed 22 mph    
Max Gust Speed 28 mph    
Visibility 10 miles    
Events      
T = Trace of Precipitation, MM = Missing Value Source: NWS Daily Summary

Daily Weather History Graph

Daily Weather History Graph

Search for Another Location

Airport:

Trip Planner

Search our weather history database for the weather conditions in past years. The results will help you decide how hot, cold, wet, or windy it might be!

Date:

Astronomy

Jan. 31, 2013 Rise Set
Actual Time 6:32 AM CST 5:16 PM CST
Civil Twilight 6:07 AM CST 5:41 PM CST
Nautical Twilight 5:38 AM CST 6:10 PM CST
Astronomical Twilight 5:10 AM CST 6:38 PM CST
Moon 9:52 PM CST 8:54 AM CST
Length of Visible Light 11h 33m
Length of Day
10h 43m
Waning Gibbous, 79% of the Moon is Illuminated
Jan 31
Waning Gibbous
Feb 3
Last Quarter
Feb 10
New
Feb 17
First Quarter
Feb 25
Full

Hourly Weather History & Observations

Time (CST) Temp. Windchill Dew Point Humidity Pressure Visibility Wind Dir Wind Speed Gust Speed Precip Events Conditions
12:53 AM 46.9 °F - 33.1 °F 59% 30.05 in 10.0 mi WNW 15.0 mph 20.7 mph N/A   Clear
1:53 AM 45.0 °F 39.7 °F 33.1 °F 63% 30.07 in 10.0 mi WNW 10.4 mph - N/A   Scattered Clouds
2:53 AM 43.0 °F 37.2 °F 30.9 °F 62% 30.08 in 10.0 mi WNW 10.4 mph - N/A   Clear
3:53 AM 42.1 °F 36.1 °F 28.9 °F 60% 30.11 in 10.0 mi NW 10.4 mph - N/A   Clear
4:53 AM 39.9 °F 35.1 °F 28.9 °F 65% 30.11 in 10.0 mi NW 6.9 mph - N/A   Clear
5:53 AM 39.0 °F 34.0 °F 28.9 °F 67% 30.13 in 10.0 mi WNW 6.9 mph - N/A   Clear
6:53 AM 37.0 °F 34.5 °F 28.9 °F 73% 30.16 in 10.0 mi West 3.5 mph - N/A   Clear
7:53 AM 42.1 °F 37.1 °F 28.9 °F 60% 30.19 in 10.0 mi West 8.1 mph - N/A   Clear
8:53 AM 45.0 °F 39.7 °F 28.9 °F 53% 30.22 in 10.0 mi NW 10.4 mph - N/A   Clear
9:53 AM 46.9 °F - 27.0 °F 46% 30.24 in 10.0 mi WNW 11.5 mph - N/A   Clear
10:53 AM 51.1 °F - 24.1 °F 35% 30.23 in 10.0 mi NNW 16.1 mph - N/A   Clear
11:53 AM 53.1 °F - 21.0 °F 29% 30.24 in 10.0 mi NW 15.0 mph 23.0 mph N/A   Clear
12:53 PM 55.0 °F - 21.9 °F 28% 30.21 in 10.0 mi NW 12.7 mph - N/A   Clear
1:53 PM 57.0 °F - 21.9 °F 26% 30.19 in 10.0 mi North 10.4 mph - N/A   Clear
2:53 PM 57.0 °F - 21.0 °F 25% 30.19 in 10.0 mi NNW 6.9 mph - N/A   Clear
3:53 PM 57.0 °F - 21.9 °F 26% 30.19 in 10.0 mi North 9.2 mph - N/A   Clear
4:53 PM 55.0 °F - 23.0 °F 29% 30.19 in 10.0 mi NW 4.6 mph - N/A   Clear
5:53 PM 48.9 °F - 28.0 °F 44% 30.22 in 10.0 mi Calm Calm - N/A   Clear
6:53 PM 46.0 °F - 28.9 °F 51% 30.24 in 10.0 mi Calm Calm - N/A   Clear
7:53 PM 44.1 °F - 30.9 °F 60% 30.26 in 10.0 mi Calm Calm - N/A   Clear
8:53 PM 45.0 °F - 30.0 °F 56% 30.27 in 10.0 mi Calm Calm - N/A   Clear
9:53 PM 42.1 °F - 33.1 °F 70% 30.28 in 10.0 mi Calm Calm - N/A   Clear
10:53 PM 37.0 °F - 33.1 °F 86% 30.28 in 10.0 mi Calm Calm - N/A   Clear